Regional Weather Roundup
Issued by NWS

Home | Current Version | Previous Version | Text Only | Print | Product List | Glossary Off
Versions: 1 2 3 4 5 6 7 8 9 10 11 12 13 14 15 16 17 18 19 20 21 22 23 24 25 26 27 28 29 30 31 32 33 34 35 36 37 38 39 40 41 42 43 44 45 46 47 48 49 50

000
ASUS43 KDTX 050410
RWRMI
MICHIGAN HOURLY REGIONAL WEATHER ROUNDUP
NATIONAL WEATHER SERVICE DETROIT/PONTIAC MI
1200 AM EDT SAT SEP 05 2015

NOTE: "FAIR" INDICATES FEW OR NO CLOUDS BELOW 12,000 FEET WITH NO
SIGNIFICANT WEATHER AND/OR OBSTRUCTION TO VISIBILITY.

MIZ047>049-052>055-059>063-066>070-074>076-081>083-050500-
SOUTHEAST LOWER MICHIGAN

CITY           SKY/WX    TMP DP  RH WIND       PRES   REMARKS
ADRIAN         PTCLDY    70  69  97 SW3       30.09R
ALMA           MOCLDY    69  69  99 CALM      30.07S FOG
ANN ARBOR      FOG       66  65  96 CALM      30.07S VSB 1/4
BAD AXE        CLEAR     70  69  96 CALM      30.09S FOG
DETROIT CITY   CLEAR     71  68  90 CALM      30.07F
DETROIT        MOCLDY    72  69  90 CALM      30.07S FOG
FLINT          CLOUDY    75  68  78 S5        30.07S
GROSSE ILE     CLEAR     73  70  88 S6        30.06S
HILLSDALE      PTCLDY    69  69 100 S3        30.10R FOG
HOWELL         PTCLDY    69  68  95 CALM      30.08R

CITY           SKY/WX    TMP DP  RH WIND       PRES   REMARKS
JACKSON        FOG       67  66  97 CALM      30.08S VSB 3/4
LAMBERTVILLE   PTCLDY    69  66  90 S3        30.09S
LANSING        PTCLDY    68  66  93 CALM      30.08R
LAPEER         NOT AVBL
MASON          FOG       66  64  91 CALM      30.08R VSB 3/4
MONROE         CLEAR     70  67  92 CALM      30.06F
MT. CLEMENS    PTCLDY    71  69  92 E6        30.06S
PONTIAC        CLOUDY    72  68  87 SE5       30.08S
PORT HOPE        N/A     73  66  78 SE14      30.07R
PORT HURON     MOCLDY    70  68  94 E6        30.08F
TRI CITIES     CLOUDY    70  68  93 CALM      30.07S FOG
YPSILANTI      PTCLDY    70  66  87 CALM      30.08S FOG
$$
MIZ043>046-050>051-056>058-064>065-071>073-077>080-050500-
SOUTHWEST LOWER MICHIGAN

CITY           SKY/WX    TMP DP  RH WIND       PRES   REMARKS
BATTLE CREEK   PTCLDY    68  65  90 CALM      30.08R
BENTON HARBOR  CLEAR     66  64  93 CALM      30.06S FOG
BIG RAPIDS     MOCLDY    65  65  97 CALM      30.07S FOG
COLDWATER      PTCLDY    70  70  99 CALM      30.08S FOG
HOLLAND        CLEAR     64  62  93 CALM      30.07S FOG
GRAND RAPIDS   PTCLDY    69  67  93 CALM      30.07R FOG
KALAMAZOO      PTCLDY    68  64  87 CALM      30.08R
MARSHALL       MOCLDY    67  66  97 CALM      30.07S FOG
MUSKEGON       FOG       67  64  90 CALM      30.06S VSB 1
$$
MIZ016>042-050500-
NORTHERN LOWER MICHIGAN

CITY           SKY/WX    TMP DP  RH WIND       PRES   REMARKS
ALPENA         CLEAR     70  65  84 SE8       30.09S
BEAVER ISLAND  MOCLDY    68  67  94 CALM      30.08S
BELLAIRE       CLOUDY    67  66  96 CALM      30.07S FOG
CADILLAC       CLOUDY    67  67  97 CALM      30.08F FOG
CHARLEVOIX     CLOUDY    71  69  95 CALM      30.10S
FRANKFORT      CLOUDY    71  69  95 E5        30.05F
GAYLORD        RAIN      68  68 100 SE3       30.10S FOG
GRAYLING       CLOUDY    67  66  99 CALM      30.10S FOG
HARBOR SPRINGS CLOUDY    70  67  88 NE6       30.08S
HOUGHTON LAKE  CLOUDY    68  67  96 CALM      30.09S FOG
MANISTEE       CLOUDY    66  63  88 CALM      30.06S VSB<1/4
OSCODA         CLOUDY    72  66  81 E10G17    30.07S
TRAVERSE CITY  CLOUDY    71  68  90 CALM      30.06R
$$
MIZ007>008-015-050500-
EASTERN UPPER MICHIGAN

CITY           SKY/WX    TMP DP  RH WIND       PRES   REMARKS
KINROSS        CLEAR     72  64  78 E12       30.11S
MACKINAC ISLAN CLOUDY    67  64  87 E10G17    30.09F
NEWBERRY       PTCLDY    68  64  89 E5        30.10S
S. S. MARIE    CLEAR     69  63  81 E3        30.11S
$$
MIZ004>006-011>014-085-050500-
CENTRAL UPPER MICHIGAN

CITY           SKY/WX    TMP DP  RH WIND       PRES   REMARKS
MANISTIQUE     CLEAR     67  65  93 E5        30.07F
ESCANABA       PTCLDY    68  64  88 E6        30.05S
MENOMINEE      CLOUDY    66  63  88 CALM      30.05F
SAWYER-GWINN   CLEAR     67  64  91 S5        30.08S
$$
MIZ001>003-009>011-084-050500-
WESTERN UPPER MICHIGAN

CITY           SKY/WX    TMP DP  RH WIND       PRES   REMARKS
IRON MOUNTAIN  PTCLDY    65  63  93 CALM      30.07S
HOUGHTON       CLEAR     64  60  87 E9        30.04S
COPPER HARBOR    N/A     66  61  84 SW7       30.04R
IRONWOOD       CLEAR     73  66  78 S7G16     29.99R
$$

ABBREVIATIONS USED IN REMARKS
   TC - TEMPERATURE IN CELSIUS
  WCI - WIND CHILL INDEX
   HX - HEAT INDEX
  VSB - VISIBILITY



USA.gov is the U.S. government's official web portal to all federal, state and local government web resources and services.